Погода в Симферополе

Хотите узнать прогноз погоды в Симферополе? Тогда Вам сюда: Погода в Симферополе

Поиск расширенной информации на нашем сайте:

Полезная информация:

Новости сайта



02.01.2020
Опубликован Долгосрочный прогноз погоды по городам России и ближнего зарубежья на январь 2020 года.
Карты: Прогноз на январь и февраль 2020 года, Сравнение прогнозируемой аномалии приземной температуры воздуха на январь 2020 года по разным моделям.




Погода в Симферополе - сегодня

Время (UTC), дата Ветер
(°,м/с) 
Видим.   Явления Облачность Т
(°С)
Тd
(°С)
f(%) Тe
(°С)
Pmin
(гПа)
dP
(гПа)
Po
(мм)
O2
(г/м3)
Тmin Tmax R s Состояние
почвы
00 16.01.22 290 (З) 10 км    10/3 900 м средняя 
[Sc|Ac und]
-0.3 -2.2 87 -2  1017.7  1.6  746  301           
03 16.01.22 310 (СЗ) 10 км  в посл. час снег  10/0 средняя 
[Ac und]
-0.5 -2.1 89 -2  1019.2  1.4  747  302  -0.9         
06 16.01.22 300 (СЗ) 10 км  {снег}  10/10 1500 м 
[Sc]
-1.1 -1.8 95 -2  1021.2  1.9  749  303  -1.3    0.0     
09 16.01.22 320 (СЗ) 10 км    10/10 1500 м кучево-дожд. 
[Cb calv]
+2.3 -4.9 59 -1  1022.7  1.8  750  300           
12 16.01.22 320 (СЗ) 4{10}  10 км    10/10 1300 м 
[Sc]
+2.4 -5.7 55 1022.4  -0.3  750  300           
15 16.01.22 300 (СЗ) 10 км    10/10 1300 м 
[Sc]
+1.4 -4.9 63 1023.1  0.6  750  301           
18 16.01.22 300 (СЗ) 10 км    10/10 1300 м 
[Sc]
+0.5 -5.9 62 1024  0.8  751  303    +3.9       
21 16.01.22 170 (Ю) 10 км    10/10 1260 м 
[Sc]
-0.2 -4.4 73 -1  1023.5  -0.6  750  303           
00 17.01.22 180 (Ю) 10 км    10/10 870 м 
[Sc]
+0.3 -4.3 71 -1  1022.5  -0.9  750  302           
03 17.01.22 200 (Ю) 10 км    10/10 1000 м 
[Sc]
+0.9 -3.2 74 -1  1020.4  -2  748  301  -0.3         
06 17.01.22 210 (ЮЗ) 10 км    10/10 1140 м 
[Sc]
+2.1 -3 69 -1  1019.2  -1.1  747  299  -0.3         
09 17.01.22 210 (ЮЗ) 8-12{12}  10 км    10/10 1140 м 
[Sc]
+4.4 -2.2 62 +1  1016.1  -2.8  745  296           
12 17.01.22 220 (ЮЗ) 11-15{15}  10 км    10/3 600 м средняя 
[Sc|Ac und]
+5.6 -0.9 63 +2  1011.9  -4  742  293           
15 17.01.22 210 (ЮЗ) 9-12{16}  10 км    10/8 1170 м кучево-дожд., средняя 
[Cb calv|Ac und]
+5.3 +1.4 76 +2  1008.7  -3.2  740  292           
18 17.01.22 250 (З) 10 км    10/10 700 м 
[Sc]
+5.3 +1 74 +2  1006.5  -2.1  738  292    +5.8       
21 17.01.22 220 (ЮЗ) 5{13}  10 км    10/5 800 м средняя 
[Sc|Ac und]
+2.8 -0.3 80 1005.7  -1  738  294           
00 18.01.22 240 (ЮЗ) 4-12  1900 м  сильн. снег{дождь}  10/8 240 м средняя 
[Frnb|As op]
+1 +0.7 98 -1  1004.9  -0.9  737  296           
03 18.01.22 310 (СЗ) 4400 м  слаб. снег  10/8 100 м средняя 
[Frnb|As op]
+0 -0.6 96 -3  1005.7  0.7  737  297  +0         
06 18.01.22 270 (З) 10 км  {снег}  10/3 1000 м средняя, верхняя 
[Sc|Ac trans|Ci fib]
-0.9 -1.2 98 -3  1008.4  2.5  739  299  -1       
09 18.01.22 290 (З) 1600 м  ливневой снег  10/10 800 м кучево-дожд. 
[Cb calv]
-0.2 -0.8 96 -3  1008.4  0.1  739  298           
12 18.01.22 310 (СЗ) 8-12  2500 м  крупа{ливн. осадки}  10/10 960 м кучево-дожд. 
[Cb calv]
-2.5 -4.7 85 -7  1012.7  742  302           
15 18.01.22 280 (З) 10 км  {ливн. осадки}  8/4 1000 м кучево-дожд., средняя 
[Cb calv|Ac trans]
-4.3 -7.6 78 -7  1016  3.1  745  306         
18 18.01.22 200 (Ю) 10 км  {ливн. осадки}  8/8 600 м 
[Sc]
-7.6 -8.4 94 -10  1018.2  1.8  746  310    +0.8     
21 18.01.22 280 (З) 10 км  в посл. час ливневой снег  10/6 1500 м кучево-дожд., средняя 
[Cb calv|Ac und]
-5.2 -7.2 86 -8  1019.5  1.5  747  308           
00 19.01.22 250 (З) 10 км  {ливн. осадки}  8/8 1500 м 
[Sc]
-5.8 -7.8 86 -7  1020.7  1.1  748  309           
Время (UTC), дата Ветер
(°,м/с) 
Видим.   Явления Облачность Т
(°С)
Тd
(°С)
f(%) Тe
(°С)
Pmin
(гПа)
dP
(гПа)
Po
(мм)
O2
(г/м3)
Тmin Tmax R s Состояние
почвы

Для получения пояснительной информации подведите курсор к названию столбца.

ПОГОДА в Симферополе - архив

Всё, что Вы хотите узнать о погоде в Симферополе - удобно и подробно!

Выберите нужную дату (начиная с 1 января 2019* года) и нажмите кнопку "Найти".
Будут отображены архивные сводки погоды по пункту Симферополь, начиная с указанной даты.


Отображать данные в формате CSV (для использования в таблицах Excel)


Внимание! Наш архив погоды предназначен исключительно для личного некоммерческого использования в познавательных целях. Если Вам необходимы официальные справки о состоянии погоды (для производственных, юридических, коммерческих и т.п. целей), обращайтесь в органы Росгидромета.

*Примечание: данная дата относится к архиву по метеостанциям СССР (Россия, СНГ, Балтия).
Архив по метеостанциям Зарубежной Европы и Азии (кроме Китая) хранится 10 дней, по другим регионам земного шара (Китай, Африка, Америка, Австралия, Океания) - 1 день.

Симферополь - район местоположения метеостанции


Название, широта, долгота, высота метеостанции:
Симферополь 44.7°ш. 34.1°д. 181 м над ур. моря [Российская Федерация]

Дополнительная информация

В oтличие oт бoльшинства пoгoдных сайтoв мы публикуем пoдрoбную метеoинфoрмацию в детальнoм прoфессиoнальнoм фoрмате.

Характеристики температуры и влажнoсти вoздуха измеряются на высoте 2 м в тени вдали oт зданий и деревьев.
Скoрoсть ветра измеряется на высoте 10 м (на урoвне рoста челoвека скoрoсть ветра ниже в 1.5-2 раза). Если метеoстанция нахoдится в гoрoде или в лесу, тo скoрoсть ветра занижена на 2-4 м/с пo сравнению с oткрытым местoм. Скoрoсть ветра над акватoриями крупных рек и oзёр, а также на вершинах хoлмoв на 2-5 м/с выше, чем в oбычных услoвиях.
Атмoсфернoе давление в разных тoчках местнoсти мoжет значительнo oтличаться oт давления на метеoстанции, в зависимoсти oт услoвий рельефа (при пoдъёме на 10 м давление пoнижается примернo на 1 мм рт.ст.).